Regional Weather Roundup
Issued by NWS

Home | Current Version | Previous Version | Text Only | Print | Product List | Glossary Off
Versions: 1 2 3 4 5 6 7 8 9 10 11 12 13 14 15 16 17 18 19 20 21 22 23 24 25 26 27 28 29 30 31 32 33 34 35 36 37 38 39 40 41 42 43 44 45 46 47 48 49 50

000
ASUS43 KLMK 040110
RWRKY
KENTUCKY REGIONAL WEATHER ROUNDUP
NATIONAL WEATHER SERVICE LOUISVILLE KY
900 PM EDT SUN MAY 03 2015

NOTE "FAIR" INDICATES FEW OR NO CLOUDS BELOW 12,000 FEET
WITH NO SIGNIFICANT WEATHER AND/OR OBSTRUCTIONS TO VISIBILITY.

KYZ001>023-026-027-061>063-070>075-040200-
WESTERN AND SOUTH CENTRAL KENTUCKY

CITY           SKY/WX    TMP DP  RH WIND       PRES   REMARKS
PADUCAH        CLEAR     72  47  40 S5        30.03S
HENDERSON      PTCLDY    70  46  43 S7        30.03S
OWENSBORO      CLEAR     69  53  56 SW5       30.06R
HOPKINSVILLE   PTCLDY    71  49  45 S3        30.07R
BOWLING GREEN  CLEAR     71  49  45 SE3       30.08R
GLASGOW        CLEAR     66  54  65 CALM      30.09S
$$

KYZ024-025-028>034-038-045-046-053-040200-
NORTH CENTRAL KENTUCKY

CITY           SKY/WX    TMP DP  RH WIND       PRES   REMARKS
LOUISVILLE/SDF PTCLDY    75  49  39 S7        30.07R
LOUISVILLE/LOU PTCLDY    74  48  39 CALM      30.07R
FORT KNOX      PTCLDY    70  49  47 S5        30.07R
$$

KYZ035>037-039>044-047>052-055>060-089>105-040200-
NORTHEAST KENTUCKY

CITY           SKY/WX    TMP DP  RH WIND       PRES   REMARKS
LEXINGTON      CLEAR     71  46  40 S3        30.10S
COVINGTON      PTCLDY    68  46  45 S5        30.08R
FRANKFORT      CLEAR     64  50  60 SW3       30.08R
$$

KYZ054-064>069-076>088-106>120-040200-
SOUTHEAST KENTUCKY

CITY           SKY/WX    TMP DP  RH WIND       PRES   REMARKS
JACKSON        CLEAR     72  38  29 CALM      30.13R
LONDON         CLOUDY    72  46  39 CALM      30.12R
SOMERSET       CLEAR     68  45  42 CALM      30.12R
MIDDLESBORO    PTCLDY    63  50  62 CALM      30.14R
MONTICELLO     CLEAR     63  51  64 CALM      30.14R
$$




USA.gov is the U.S. government's official web portal to all federal, state and local government web resources and services.